Overview Statistics Trail Chart Weather Telemetry Raw packets
 

This is the latest recevied weather packets stored in our database for station/object KC5DAQ-27. If no packets are shown the sender has not sent any weather packets the latest 10 day(s).

<< 40 41 42 43 44 45 46 >>
Time Temp. Humidity Pressure Rain* Wind** Luminosity Snow
1788655622 25.56° C 93% 1002.8 hPa 0 mm - 0 W/m² -
1788655563 25.56° C 93% 1002.8 hPa 0 mm - 5 W/m² -
1788655505 25.56° C 93% 1002.8 hPa 0 mm - 5 W/m² -
1788655443 25.56° C 93% 1002.9 hPa 0 mm - 7 W/m² -
1788655382 25.56° C 93% 1002.9 hPa 0 mm - 9 W/m² -
1788655320 25.56° C 93% 1002.9 hPa 0 mm - 9 W/m² -
1788655259 25.56° C 93% 1002.9 hPa 0 mm - 9 W/m² -
1788655197 25.56° C 93% 1002.9 hPa 0 mm - 11 W/m² -
1788655136 25.56° C 93% 1002.9 hPa 0 mm - 11 W/m² -
1788655075 25.56° C 93% 1002.8 hPa 0 mm - 12 W/m² -
1788655011 25.56° C 93% 1002.8 hPa 0 mm - 14 W/m² -
1788654950 25.56° C 93% 1002.8 hPa 0 mm - 14 W/m² -
1788654888 25.56° C 93% 1002.7 hPa 0 mm - 12 W/m² -
1788654826 25.56° C 93% 1002.7 hPa 0 mm - 12 W/m² -
1788654765 25.56° C 93% 1002.7 hPa 0 mm - 9 W/m² -
1788654704 25.56° C 93% 1002.7 hPa 0 mm - 7 W/m² -
1788654642 25.56° C 93% 1002.8 hPa 0 mm - 5 W/m² -
1788654582 25.56° C 93% 1002.8 hPa 0 mm - 5 W/m² -
1788654554 25° C 93% 1002.8 hPa 0 mm - 5 W/m² -
1788654458 25° C 93% 1002.7 hPa 0 mm - 5 W/m² -
1788654396 25° C 93% 1002.7 hPa 0 mm - 0 W/m² -
1788654335 25° C 92% 1002.9 hPa 0 mm - 0 W/m² -
1788654271 25° C 92% 1002.9 hPa 0 mm - 0 W/m² -
1788654212 25° C 92% 1003 hPa 0 mm - 0 W/m² -
1788654151 25° C 92% 1003 hPa 0 mm - 0 W/m² -

* Rain latest hour (hover to see other rain measurements)
** Current wind speed in m/s (hover to see current wind gust speed)